Regional Weather Roundup
Issued by NWS Newport/Morehead, NC

Current Version | Previous Version | Text Only | Print | Product List | Glossary On
Versions: 1 2 3 4 5 6 7 8 9 10 11 12 13 14 15 16 17 18 19 20 21 22 23 24 25 26 27 28 29 30 31 32 33 34 35 36 37 38 39 40 41 42 43 44 45 46 47 48 49 50
000
ASUS42 KMHX 241713
RWRMHX
WEATHER ROUNDUP FOR EASTERN NORTH CAROLINA
NATIONAL WEATHER SERVICE NEWPORT/MOREHEAD CITY NC
100 PM EDT FRI MAR 24 2017

NOTE: "FAIR" INDICATES FEW OR NO CLOUDS BELOW 12,000 FEET
WITH NO SIGNIFICANT WEATHER AND/OR OBSTRUCTIONS TO VISIBILITY

NCZ015>017-031-032-045>047-102-103-241800-
NORTH COAST

CITY           SKY/WX    TMP DP  RH WIND       PRES   REMARKS
EDENTON        SUNNY     64  40  41 SW8       30.50F
ELIZABETH CITY SUNNY     62  40  44 S12       30.50F
KITTY HAWK     NOT AVBL
MANTEO         SUNNY     61  45  56 S9        30.50F

$$

NCZ045>047-081-094-103-104-241800-
CENTRAL COAST

CITY           SKY/WX    TMP DP  RH WIND       PRES   REMARKS
FRISCO         SUNNY     65  45  48 SW9       30.51F

$$

NCZ095-097-098-100-101-241800-
SOUTHERN COAST

CITY           SKY/WX    TMP DP  RH WIND       PRES   REMARKS
BEAUFORT       SUNNY     67  47  48 S10       30.51F
CEDAR ISLAND   NOT AVBL
JACKSONVILLE   NOT AVBL
PINEY ISLAND   PTSUNNY  N/A N/A N/A SW12G23   30.50F
WILMINGTON     SUNNY     69  46  43 SW9G20    30.49F


$$

NCZ011>013-027>030-043-044-078>080-089-090>093-098-241800-
COASTAL PLAIN

CITY           SKY/WX    TMP DP  RH WIND       PRES   REMARKS
AHOSKIE          N/A     64  42  44 SW3       30.47F
CLINTON        SUNNY     68  47  47 S6        30.49F
ELIZABETHTOWN  SUNNY     69  44  40 S3        30.48F
GOLDSBORO      SUNNY     68  44  40 SW14G20   30.46F
GREENVILLE     SUNNY     68  43  40 SW10      30.48F
HAVELOCK       MOSUNNY   67  46  46 SW12G21   30.50F
KENANSVILLE    SUNNY     68  43  40 W7G20     30.48F
KINSTON        SUNNY     68  41  37 SW8       30.49F
NEW BERN       MOSUNNY   69  45  41 SW12G22   30.50F
RICHLANDS      MOSUNNY   70  45  40 S10       30.49F
ROCKY MOUNT    SUNNY     65  45  48 S10G23    30.48F
WASHINGTON     SUNNY     66  43  42 SW12G17   30.49F
WHITEVILLE     SUNNY     69  43  38 S9        30.48F

$$

AMZ130-135-150-152-154-156-158-170-250-252-270-ANZ085-086-088-633-658-670-241800-
MARINE OBSERVATIONS

STATION/POSITION TIME  TEMP    WIND        PRES    WAVE   SWELL
                       AIR SEA DIR/SP/G            HT/PER HT/PER
                 (UTC) (F)     (DEG/KT/KT) (MB)    (FT/S) (FT/S)
CHESAPEAKE LIGHT NOT AVBL
64 E VA BEACH    1650   52 50  170/  6/  6 1032.8    3/ 8   3/ 8
DUCK             1648   53 48  130/  5/  6 1032.3
2 E DUCK         1700      50                N/A     3/ 9
OREGON INLET     1642   53 48  200/  8/  9 1033.0
13E OREGON INLT  NOT AVBL
HATTERAS CG      1648   63 52  220/  7/ 10 1032.9
DIAMOND BUOY     1650   63 75  200/ 14/ 19 1033.6    4/ 9   3/ 9
CAPE LOOKOUT     1700   63     180/ 11/ 12 1032.8
BEAUFORT LAB     1648   61 51  180/  7/  9 1032.1
30 SE NEW RVR IN 1608   64     190/  8/ 10 1033.7
30 SE NEW RVR IN 1643      68                N/A     3/ 9
27 SE WRIGHTSVLE 1608   64 62  140/  6/  8 1032.6
5 SE WRIGHTSVLE  1608   56 56   50/  6/ 10 1033.4
225 S CAPE HAT   1650   63 73   80/ 14/ 17 1033.3    5/10   5/10
41 SE CHARLESTON 1650   69 71  120/ 14/ 16 1031.6    5/ 5   3/ 7

$$




USA.gov is the U.S. government's official web portal to all federal, state and local government web resources and services.